This demonstration page uses our WeatherBlox Daily Observations layout. Learn more.

Left ArrowRight Arrow

39.08367, -84.50855

Hourly Observations for December 20, 2016

Temp ( °F °C ) Dew Point ( °F °C ) Humidity (%) Winds ( mph kmh ) Pressure ( in mb ) Visibility ( mi km ) Precip ( " mm )
12:53 am 00:53 Clear with Mist and Fog 15 -9.4 13 -10.6 91 91 Calm 30.64 1038 4 6 0.00 0.00
1:53 am 01:53 Clear with Mist and Fog 15 -9.4 12 -11.1 88 88 Calm 30.62 1037 4 6 0.00 0.00
2:45 am 02:45 Clear with Mist and Fog 14 -10 12 -11.1 92 92 Calm 30.65 1038 2 2 0.00 0.00
2:53 am 02:53 Mostly Cloudy with Mist and Fog 14 -10 13 -10.6 95 95 Calm 30.60 1036 1 2 0.00 0.00
3:11 am 03:11 Mostly Cloudy with Mist and Fog 14 -10 13 -10.6 95 95 Calm 30.65 1038 3 5 0.00 0.00
3:28 am 03:28 Cloudy with Mist and Fog 16 -9 14 -10 93 93 Calm 30.65 1038 2 3 0.00 0.00
3:37 am 03:37 Mostly Cloudy with Mist and Fog 16 -8.9 16 -8.9 100 100 Calm 30.65 1038 1 2 0.00 0.00
3:44 am 03:44 Mostly Cloudy with Freezing Fog 16 -9 16 -9 100 100 Calm 30.65 1038 1 1 0.00 0.00
3:53 am 03:53 Mostly Cloudy with Freezing Fog 16 -8.9 16 -8.9 100 100 Calm 30.60 1036 1 1 0.00 0.00
4:24 am 04:24 Cloudy with Mist and Fog 16 -9 12 -11 86 86 Calm 30.65 1038 3 4 0.00 0.00
4:31 am 04:31 Cloudy with Mist and Fog 15 -9.4 13 -10.6 91 91 Calm 30.65 1038 4 6 0.00 0.00
4:51 am 04:51 Cloudy with Mist and Fog 16 -9 16 -9 100 100 Calm 30.65 1038 2 3 0.00 0.00
4:53 am 04:53 Cloudy with Mist and Fog 16 -8.9 16 -8.9 100 100 Calm 30.60 1036 1 1 0.00 0.00
5:03 am 05:03 Mostly Cloudy with Freezing Fog 16 -9 16 -9 100 100 Calm 30.62 1037 0 0 0.00 0.00
5:42 am 05:42 Mostly Cloudy with Freezing Fog 16 -9 16 -9 100 100 Calm 30.62 1037 0 0 0.00 0.00
5:53 am 05:53 Mostly Cloudy with Freezing Fog 15 -9.4 14 -10 95 95 Calm 30.56 1035 0 0 0.00 0.00
6:04 am 06:04 Cloudy with Mist and Fog 16 -9 14 -10 93 93 Calm 30.59 1036 1 2 0.00 0.00
6:07 am 06:07 Cloudy with Mist and Fog 16 -8.9 15 -9.4 96 96 Calm 30.59 1036 3 5 0.00 0.00
6:20 am 06:20 Cloudy with Mist and Fog 16 -9 16 -9 100 100 Calm 30.59 1036 3 4 0.00 0.00
6:39 am 06:39 Cloudy with Mist and Fog 14 -10 12 -11.1 92 92 Calm 30.59 1036 4 6 0.00 0.00
6:53 am 06:53 Cloudy with Mist and Fog 15 -9.4 13 -10.6 91 91 Calm 30.57 1035 3 4 0.00 0.00
7:08 am 07:08 Cloudy with Mist and Fog 16 -9 12 -11 86 86 Calm 30.59 1036 5 8 0.00 0.00
7:20 am 07:20 Cloudy with Mist and Fog 16 -9 12 -11 86 86 Calm 30.59 1036 5 8 0.00 0.00
7:42 am 07:42 Partly Cloudy with Mist and Fog 14 -10 12 -11 92 92 NE 3 6 30.59 1036 3 5 0.00 0.00
7:53 am 07:53 Partly Cloudy with Mist and Fog 14 -10 12 -11.1 92 92 ENE 3 6 30.57 1035 3 5 0.00 0.00
8:53 am 08:53 Sunny with Mist and Fog 17 -8.3 15 -9.4 92 92 Calm 30.55 1035 3 5 0.00 0.00
9:53 am 09:53 Sunny with Mist and Fog 21 -6.1 21 -6.1 100 100 S 3 6 30.54 1034 4 6 0.00 0.00
10:53 am 10:53 Sunny with Mist and Fog 25 -3.9 23 -5 92 92 SSW 6 9 30.52 1034 6 10 0.00 0.00
11:53 am 11:53 Sunny 31 -0.6 26 -3.3 82 82 SSW 5 7 30.46 1032 8 13 0.00 0.00
12:53 pm 12:53 Sunny 35 1.7 25 -3.9 67 67 S 3 6 30.41 1030 10 16 0.00 0.00
1:53 pm 13:53 Sunny 39 3.9 21 -6.1 48 48 SW 10 17 30.37 1029 10 16 0.00 0.00
2:53 pm 14:53 Sunny 40 4.4 19 -7.2 43 43 SW 10 17 30.35 1028 10 16 0.00 0.00
3:53 pm 15:53 Sunny 41 5 21 -6.1 45 45 SSW 10 17 30.32 1027 10 16 0.00 0.00
4:53 pm 16:53 Sunny 37 2.8 20 -6.7 50 50 SSW 13 20 30.30 1026 10 16 0.00 0.00
5:53 pm 17:53 Clear 35 1.7 22 -5.6 59 59 SSW 9 15 30.32 1027 10 16 0.00 0.00
6:53 pm 18:53 Clear 30 -1.1 22 -5.6 72 72 SSW 9 15 30.33 1027 10 16 0.00 0.00
7:53 pm 19:53 Clear 32 0 24 -4.4 73 73 SSW 9 15 30.30 1026 10 16 0.00 0.00
8:53 pm 20:53 Clear 31 -0.6 25 -3.9 79 79 SSW 7 11 30.30 1026 10 16 0.00 0.00
9:53 pm 21:53 Clear 30 -1.1 24 -4.4 79 79 SSW 6 9 30.30 1026 10 16 0.00 0.00
10:53 pm 22:53 Clear 28 -2.2 24 -4.4 85 85 SSW 9 15 30.32 1027 10 16 0.00 0.00
11:53 pm 23:53 Clear 27 -2.8 24 -4.4 89 89 SSW 6 9 30.32 1027 10 16 0.00 0.00

Powered by AerisWeather